Location: Praha
(50.0830°N, 14.4670°E)
Time: 14:45:25
(UTC+01:00)

ISS - Pass Details

Date: 06 December 2018
Orbit: 401 x 408 km, 51.6° (Epoch: 12 December)

Event Time Altitude Azimuth Distance (km) Brightness Sun altitude
Rises 17:43:33 0° 282° (WNW) 2,319 1.1 -15.6°
Reaches altitude 10° 17:45:38 10° 284° (WNW) 1,458 -0.1 -15.9°
Maximum altitude 17:48:54 74° 11° (N) 422 -3.9 -16.4°
Enters shadow 17:49:43 46° 83° (E) 547 -3.7 -16.6°
